Regional Weather Roundup
Issued by NWS

Home | Current Version | Previous Version | Graphics & Text | Print | Product List | Glossary On
Versions: 1 2 3 4 5 6 7 8 9 10 11 12 13 14 15 16 17 18 19 20 21 22 23 24 25 26 27 28 29 30 31 32 33 34 35 36 37 38 39 40 41 42 43 44 45 46 47 48 49 50
000
ASUS43 KOAX 201410
RWRNE

WEATHER ROUNDUP FOR NEBRASKA
NATIONAL WEATHER SERVICE OMAHA NE
900 AM CDT SAT SEP 20 2014

NOTES: SATELLITE DATA IS BEING USED TO AUGMENT CLOUD COVER ABOVE
       12000 FEET.
       "FAIR" INDICATES FEW OR NO CLOUDS BELOW 12,000 FEET WITH NO
       SIGNIFICANT WEATHER AND/OR OBSTRUCTIONS TO VISIBILITY.

  * THESE STATIONS DO NOT REPORT WEATHER SUCH AS RAIN...SNOW OR FOG.

NEZ001>004-019>022-054>056-201500-
NEBRASKA PANHANDLE

CITY           SKY/WX    TMP DP  RH WIND       PRES   REMARKS
SCOTTSBLUFF    SUNNY     56  49  77 NW9       30.17R
ALLIANCE       SUNNY     54  48  80 W3        30.14R
CHADRON        SUNNY     56  50  80 SW7       30.11S
KIMBALL        SUNNY     56  48  75 NW8       30.19R
SIDNEY         SUNNY     58  49  72 NW12      30.18R
$$

NEZ057>060-069>072-079>082-201500-
SOUTHWEST NEBRASKA

CITY           SKY/WX    TMP DP  RH WIND       PRES   REMARKS
NORTH PLATTE   SUNNY     64  53  67 N9        30.04R
IMPERIAL       SUNNY     64  52  64 N9        30.07R
LEXINGTON      SUNNY     66  57  74 N8        30.00R
MCCOOK         SUNNY     67  56  67 NE15      29.99R
OGALLALA       SUNNY     67  52  58 N8        30.09R
$$

NEZ005>010-023>029-035>040-094-201500-
NORTH CENTRAL NEBRASKA

CITY           SKY/WX    TMP DP  RH WIND       PRES   REMARKS
VALENTINE      MOSUNNY   61  52  72 W3        30.04R
AINSWORTH      MOSUNNY   60  53  77 W3        30.02R
BROKEN BOW     SUNNY     68  54  60 N12       30.01R
O`NEILL        MOSUNNY   64  59  86 W3        29.98S
ORD            SUNNY     67  54  63 N7        29.97R
THEDFORD       SUNNY     62  53  73 NW6       30.06R
$$

NEZ041-046>049-061>064-073>077-083>087-201500-
SOUTH CENTRAL NEBRASKA

CITY           SKY/WX    TMP DP  RH WIND       PRES   REMARKS
GRAND ISLAND   SUNNY     70  60  70 N12       29.97R
AURORA         SUNNY     68  63  83 N3        29.95R
HASTINGS       SUNNY     69  60  73 NW3       29.95R
HEBRON         PTSUNNY   70  63  77 SE3       29.95S
HOLDREGE       SUNNY     66  58  75 N9        29.97R
KEARNEY *      SUNNY     66  57  72 N9        29.98R
YORK           MOSUNNY   68  64  88 N3        29.94R
$$

NEZ011>018-030>034-042>045-201500-
NORTHEAST NEBRASKA

CITY           SKY/WX    TMP DP  RH WIND       PRES   REMARKS
NORFOLK        MOSUNNY   69  58  67 NW3       29.94R
ALBION         SUNNY     67  57  70 NW5       29.96R
BLAIR          PTSUNNY   71  66  85 S7        29.92S
COLUMBUS *     MOSUNNY   70  61  73 CALM      29.96R
FREMONT        PTSUNNY   71  65  83 CALM      29.93R
TEKAMAH        PTSUNNY   70  66  87 CALM      29.91R
WAYNE          PTSUNNY   65  62  90 CALM      29.92S
$$

NEZ050>053-065>068-078-088>093-201500-
SOUTHEAST NEBRASKA

CITY           SKY/WX    TMP DP  RH WIND       PRES   REMARKS
LINCOLN        PTSUNNY   72  65  78 CALM      29.94R
OMAHA EPPLEY   PTSUNNY   69  64  84 S8        29.92R
BEATRICE       CLOUDY    68  65  90 S5        29.94F
FALLS CITY     CLOUDY    70  68  93 S9        29.94R
NEBRASKA CITY  TSTM      66  65  99 N8        29.99R
PLATTSMOUTH    CLOUDY    65  63  92 CALM      29.93F
$$

NEZ044-045-051>053-067-201500-
OMAHA AREA

CITY           SKY/WX    TMP DP  RH WIND       PRES   REMARKS
OMAHA EPPLEY   PTSUNNY   69  64  84 S8        29.92R
BLAIR          PTSUNNY   71  66  85 S7        29.92S
FREMONT        PTSUNNY   71  65  83 CALM      29.93R
MILLARD        PTSUNNY   69  65  88 S3        29.92S
OFFUTT AFB     PTSUNNY   69  68  99 S6        29.92F
PLATTSMOUTH    CLOUDY    65  63  92 CALM      29.93F
WAHOO          FAIR      70  65  83 S5        29.92S
$$


USA.gov is the U.S. government's official web portal to all federal, state and local government web resources and services.